#datetime,building,power
2023-08-16T00:00:00,rvs,30.65
2023-08-16T00:01:00,rvs,29.50
2023-08-16T00:02:00,rvs,27.43
2023-08-16T00:03:00,rvs,29.52
2023-08-16T00:04:00,rvs,24.78
2023-08-16T00:05:00,rvs,25.94
2023-08-16T00:06:00,rvs,26.73
2023-08-16T00:07:00,rvs,27.83
2023-08-16T00:08:00,rvs,15.37
2023-08-16T00:09:00,rvs,14.76
2023-08-16T00:10:00,rvs,15.59
2023-08-16T00:11:00,rvs,15.94
2023-08-16T00:12:00,rvs,15.76
2023-08-16T00:13:00,rvs,15.88
2023-08-16T00:14:00,rvs,15.46
2023-08-16T00:15:00,rvs,16.05
2023-08-16T00:16:00,rvs,15.91
2023-08-16T00:17:00,rvs,15.96
2023-08-16T00:18:00,rvs,17.19
2023-08-16T00:19:00,rvs,17.04
2023-08-16T00:20:00,rvs,16.34
2023-08-16T00:21:00,rvs,15.99
2023-08-16T00:22:00,rvs,16.47
2023-08-16T00:23:00,rvs,16.15
2023-08-16T00:24:00,rvs,16.16
2023-08-16T00:25:00,rvs,16.59
2023-08-16T00:26:00,rvs,12.11
2023-08-16T00:27:00,rvs,11.11
2023-08-16T00:28:00,rvs,10.87
2023-08-16T00:29:00,rvs,10.75
2023-08-16T00:30:00,rvs,10.70
2023-08-16T00:31:00,rvs,10.68
2023-08-16T00:32:00,rvs,11.11
2023-08-16T00:33:00,rvs,11.13
2023-08-16T00:34:00,rvs,12.00
2023-08-16T00:35:00,rvs,11.34
2023-08-16T00:36:00,rvs,11.47
2023-08-16T00:37:00,rvs,11.48
2023-08-16T00:38:00,rvs,11.35
2023-08-16T00:39:00,rvs,10.52
2023-08-16T00:40:00,rvs,10.50
2023-08-16T00:41:00,rvs,10.47
2023-08-16T00:42:00,rvs,10.42
2023-08-16T00:43:00,rvs,10.58
2023-08-16T00:44:00,rvs,10.59
2023-08-16T00:45:00,rvs,11.41
2023-08-16T00:46:00,rvs,11.45
2023-08-16T00:47:00,rvs,11.40
2023-08-16T00:48:00,rvs,11.51
2023-08-16T00:49:00,rvs,10.56
2023-08-16T00:50:00,rvs,10.54
2023-08-16T00:51:00,rvs,10.50
2023-08-16T00:52:00,rvs,10.50
2023-08-16T00:53:00,rvs,10.48
2023-08-16T00:54:00,rvs,10.45
2023-08-16T00:55:00,rvs,10.95
2023-08-16T00:56:00,rvs,11.19
2023-08-16T00:57:00,rvs,11.71
2023-08-16T00:58:00,rvs,12.31
2023-08-16T00:59:00,rvs,16.70
2023-08-16T01:00:00,rvs,15.82
2023-08-16T01:01:00,rvs,13.63
2023-08-16T01:02:00,rvs,18.13
2023-08-16T01:03:00,rvs,20.60
2023-08-16T01:04:00,rvs,16.70
2023-08-16T01:05:00,rvs,20.91
2023-08-16T01:06:00,rvs,17.71
2023-08-16T01:07:00,rvs,20.71
2023-08-16T01:08:00,rvs,23.19
2023-08-16T01:09:00,rvs,20.12
2023-08-16T01:10:00,rvs,23.88
2023-08-16T01:11:00,rvs,25.55
2023-08-16T01:12:00,rvs,22.44
2023-08-16T01:13:00,rvs,26.45
2023-08-16T01:14:00,rvs,18.96
2023-08-16T01:15:00,rvs,23.24
2023-08-16T01:16:00,rvs,24.25
2023-08-16T01:17:00,rvs,19.78
2023-08-16T01:18:00,rvs,23.91
2023-08-16T01:19:00,rvs,19.27
2023-08-16T01:20:00,rvs,18.57
2023-08-16T01:21:00,rvs,24.94
2023-08-16T01:22:00,rvs,22.37
2023-08-16T01:23:00,rvs,27.92
2023-08-16T01:24:00,rvs,40.08
2023-08-16T01:25:00,rvs,31.21
2023-08-16T01:26:00,rvs,36.10
2023-08-16T01:27:00,rvs,32.28
2023-08-16T01:28:00,rvs,20.01
2023-08-16T01:29:00,rvs,23.83
2023-08-16T01:30:00,rvs,19.35
2023-08-16T01:31:00,rvs,19.90
2023-08-16T01:32:00,rvs,24.14
2023-08-16T01:33:00,rvs,21.25
2023-08-16T01:34:00,rvs,20.24
2023-08-16T01:35:00,rvs,19.75
2023-08-16T01:36:00,rvs,14.10
2023-08-16T01:37:00,rvs,18.69
2023-08-16T01:38:00,rvs,15.04
2023-08-16T01:39:00,rvs,14.61
2023-08-16T01:40:00,rvs,18.62
2023-08-16T01:41:00,rvs,14.06
2023-08-16T01:42:00,rvs,14.23
2023-08-16T01:43:00,rvs,18.16
2023-08-16T01:44:00,rvs,13.61
2023-08-16T01:45:00,rvs,17.78
2023-08-16T01:46:00,rvs,18.07
2023-08-16T01:47:00,rvs,14.29
2023-08-16T01:48:00,rvs,14.23
2023-08-16T01:49:00,rvs,10.13
2023-08-16T01:50:00,rvs,10.09
2023-08-16T01:51:00,rvs,14.21
2023-08-16T01:52:00,rvs,10.05
2023-08-16T01:53:00,rvs,14.39
2023-08-16T01:54:00,rvs,10.31
2023-08-16T01:55:00,rvs,10.16
2023-08-16T01:56:00,rvs,10.08
2023-08-16T01:57:00,rvs,10.05
2023-08-16T01:58:00,rvs,10.03
2023-08-16T01:59:00,rvs,9.78
2023-08-16T02:00:00,rvs,9.79
2023-08-16T02:01:00,rvs,9.80
2023-08-16T02:02:00,rvs,9.85
2023-08-16T02:03:00,rvs,9.91
2023-08-16T02:04:00,rvs,9.87
2023-08-16T02:05:00,rvs,9.82
2023-08-16T02:06:00,rvs,9.76
2023-08-16T02:07:00,rvs,10.23
2023-08-16T02:08:00,rvs,10.35
2023-08-16T02:09:00,rvs,10.34
2023-08-16T02:10:00,rvs,9.70
2023-08-16T02:11:00,rvs,9.75
2023-08-16T02:12:00,rvs,9.77
2023-08-16T02:13:00,rvs,12.55
2023-08-16T02:14:00,rvs,13.27
2023-08-16T02:15:00,rvs,11.93
2023-08-16T02:16:00,rvs,14.53
2023-08-16T02:17:00,rvs,13.51
2023-08-16T02:18:00,rvs,13.42
2023-08-16T02:19:00,rvs,13.64
2023-08-16T02:20:00,rvs,15.81
2023-08-16T02:21:00,rvs,16.77
2023-08-16T02:22:00,rvs,17.35
2023-08-16T02:23:00,rvs,17.19
2023-08-16T02:24:00,rvs,18.42
2023-08-16T02:25:00,rvs,19.34
2023-08-16T02:26:00,rvs,19.17
2023-08-16T02:27:00,rvs,14.82
2023-08-16T02:28:00,rvs,14.92
2023-08-16T02:29:00,rvs,15.65
2023-08-16T02:30:00,rvs,16.08
2023-08-16T02:31:00,rvs,15.94
2023-08-16T02:32:00,rvs,16.16
2023-08-16T02:33:00,rvs,16.15
2023-08-16T02:34:00,rvs,14.51
2023-08-16T02:35:00,rvs,10.35
2023-08-16T02:36:00,rvs,10.32
2023-08-16T02:37:00,rvs,9.98
2023-08-16T02:38:00,rvs,10.50
2023-08-16T02:39:00,rvs,10.52
2023-08-16T02:40:00,rvs,10.58
2023-08-16T02:41:00,rvs,9.94
2023-08-16T02:42:00,rvs,10.09
2023-08-16T02:43:00,rvs,12.38
2023-08-16T02:44:00,rvs,13.57
2023-08-16T02:45:00,rvs,13.68
2023-08-16T02:46:00,rvs,14.36
2023-08-16T02:47:00,rvs,14.22
2023-08-16T02:48:00,rvs,14.67
2023-08-16T02:49:00,rvs,14.49
2023-08-16T02:50:00,rvs,14.27
2023-08-16T02:51:00,rvs,16.72
2023-08-16T02:52:00,rvs,16.92
2023-08-16T02:53:00,rvs,17.27
2023-08-16T02:54:00,rvs,18.74
2023-08-16T02:55:00,rvs,18.77
2023-08-16T02:56:00,rvs,18.54
2023-08-16T02:57:00,rvs,18.71
2023-08-16T02:58:00,rvs,17.99
2023-08-16T02:59:00,rvs,20.92
2023-08-16T03:00:00,rvs,21.27
2023-08-16T03:01:00,rvs,21.97
2023-08-16T03:02:00,rvs,17.62
2023-08-16T03:03:00,rvs,18.49
2023-08-16T03:04:00,rvs,19.57
2023-08-16T03:05:00,rvs,18.72
2023-08-16T03:06:00,rvs,19.59
2023-08-16T03:07:00,rvs,19.58
2023-08-16T03:08:00,rvs,19.59
2023-08-16T03:09:00,rvs,19.13
2023-08-16T03:10:00,rvs,19.32
2023-08-16T03:11:00,rvs,19.23
2023-08-16T03:12:00,rvs,19.47
2023-08-16T03:13:00,rvs,18.68
2023-08-16T03:14:00,rvs,18.41
2023-08-16T03:15:00,rvs,19.18
2023-08-16T03:16:00,rvs,15.31
2023-08-16T03:17:00,rvs,11.19
2023-08-16T03:18:00,rvs,11.83
2023-08-16T03:19:00,rvs,13.27
2023-08-16T03:20:00,rvs,13.12
2023-08-16T03:21:00,rvs,13.63
2023-08-16T03:22:00,rvs,14.60
2023-08-16T03:23:00,rvs,15.00
2023-08-16T03:24:00,rvs,17.07
2023-08-16T03:25:00,rvs,17.90
2023-08-16T03:26:00,rvs,19.46
2023-08-16T03:27:00,rvs,20.08
2023-08-16T03:28:00,rvs,20.64
2023-08-16T03:29:00,rvs,19.99
2023-08-16T03:30:00,rvs,18.57
2023-08-16T03:31:00,rvs,18.48
2023-08-16T03:32:00,rvs,14.16
2023-08-16T03:33:00,rvs,14.34
2023-08-16T03:34:00,rvs,14.53
2023-08-16T03:35:00,rvs,16.31
2023-08-16T03:36:00,rvs,12.79
2023-08-16T03:37:00,rvs,13.75
2023-08-16T03:38:00,rvs,13.10
2023-08-16T03:39:00,rvs,11.55
2023-08-16T03:40:00,rvs,11.58
2023-08-16T03:41:00,rvs,10.89
2023-08-16T03:42:00,rvs,10.83
2023-08-16T03:43:00,rvs,11.09
2023-08-16T03:44:00,rvs,11.07
2023-08-16T03:45:00,rvs,10.56
2023-08-16T03:46:00,rvs,9.89
2023-08-16T03:47:00,rvs,9.88
2023-08-16T03:48:00,rvs,10.58
2023-08-16T03:49:00,rvs,10.70
2023-08-16T03:50:00,rvs,10.74
2023-08-16T03:51:00,rvs,10.71
2023-08-16T03:52:00,rvs,9.82
2023-08-16T03:53:00,rvs,9.81
2023-08-16T03:54:00,rvs,9.85
2023-08-16T03:55:00,rvs,9.96
2023-08-16T03:56:00,rvs,9.82
2023-08-16T03:57:00,rvs,9.72
2023-08-16T03:58:00,rvs,10.14
2023-08-16T03:59:00,rvs,10.12
2023-08-16T04:00:00,rvs,10.98
2023-08-16T04:01:00,rvs,11.19
2023-08-16T04:02:00,rvs,10.95
2023-08-16T04:03:00,rvs,10.03
2023-08-16T04:04:00,rvs,11.84
2023-08-16T04:05:00,rvs,12.48
2023-08-16T04:06:00,rvs,12.55
2023-08-16T04:07:00,rvs,12.88
2023-08-16T04:08:00,rvs,15.31
2023-08-16T04:09:00,rvs,17.03
2023-08-16T04:10:00,rvs,18.23
2023-08-16T04:11:00,rvs,17.82
2023-08-16T04:12:00,rvs,30.43
2023-08-16T04:13:00,rvs,29.10
2023-08-16T04:14:00,rvs,28.74
2023-08-16T04:15:00,rvs,18.04
2023-08-16T04:16:00,rvs,19.02
2023-08-16T04:17:00,rvs,19.52
2023-08-16T04:18:00,rvs,20.20
2023-08-16T04:19:00,rvs,20.45
2023-08-16T04:20:00,rvs,20.84
2023-08-16T04:21:00,rvs,20.39
2023-08-16T04:22:00,rvs,21.01
2023-08-16T04:23:00,rvs,20.97
2023-08-16T04:24:00,rvs,20.94
2023-08-16T04:25:00,rvs,16.81
2023-08-16T04:26:00,rvs,16.38
2023-08-16T04:27:00,rvs,17.86
2023-08-16T04:28:00,rvs,17.18
2023-08-16T04:29:00,rvs,18.13
2023-08-16T04:30:00,rvs,19.83
2023-08-16T04:31:00,rvs,19.35
2023-08-16T04:32:00,rvs,18.26
2023-08-16T04:33:00,rvs,18.29
2023-08-16T04:34:00,rvs,19.93
2023-08-16T04:35:00,rvs,18.39
2023-08-16T04:36:00,rvs,17.22
2023-08-16T04:37:00,rvs,14.76
2023-08-16T04:38:00,rvs,14.38
2023-08-16T04:39:00,rvs,14.42
2023-08-16T04:40:00,rvs,14.54
2023-08-16T04:41:00,rvs,9.76
2023-08-16T04:42:00,rvs,9.66
2023-08-16T04:43:00,rvs,9.68
2023-08-16T04:44:00,rvs,9.72
2023-08-16T04:45:00,rvs,12.19
2023-08-16T04:46:00,rvs,13.08
2023-08-16T04:47:00,rvs,13.11
2023-08-16T04:48:00,rvs,13.61
2023-08-16T04:49:00,rvs,13.81
2023-08-16T04:50:00,rvs,15.43
2023-08-16T04:51:00,rvs,15.82
2023-08-16T04:52:00,rvs,15.71
2023-08-16T04:53:00,rvs,14.78
2023-08-16T04:54:00,rvs,14.76
2023-08-16T04:55:00,rvs,14.92
2023-08-16T04:56:00,rvs,14.73
2023-08-16T04:57:00,rvs,14.84
2023-08-16T04:58:00,rvs,14.75
2023-08-16T04:59:00,rvs,17.01
2023-08-16T05:00:00,rvs,12.55
2023-08-16T05:01:00,rvs,12.49
2023-08-16T05:02:00,rvs,12.89
2023-08-16T05:03:00,rvs,11.05
2023-08-16T05:04:00,rvs,11.35
2023-08-16T05:05:00,rvs,13.33
2023-08-16T05:06:00,rvs,12.98
2023-08-16T05:07:00,rvs,13.25
2023-08-16T05:08:00,rvs,13.62
2023-08-16T05:09:00,rvs,14.49
2023-08-16T05:10:00,rvs,14.00
2023-08-16T05:11:00,rvs,13.92
2023-08-16T05:12:00,rvs,13.59
2023-08-16T05:13:00,rvs,13.19
2023-08-16T05:14:00,rvs,13.22
2023-08-16T05:15:00,rvs,14.04
2023-08-16T05:16:00,rvs,13.89
2023-08-16T05:17:00,rvs,14.23
2023-08-16T05:18:00,rvs,14.42
2023-08-16T05:19:00,rvs,13.48
2023-08-16T05:20:00,rvs,13.20
2023-08-16T05:21:00,rvs,11.77
2023-08-16T05:22:00,rvs,14.38
2023-08-16T05:23:00,rvs,15.44
2023-08-16T05:24:00,rvs,18.74
2023-08-16T05:25:00,rvs,18.36
2023-08-16T05:26:00,rvs,19.23
2023-08-16T05:27:00,rvs,21.46
2023-08-16T05:28:00,rvs,23.99
2023-08-16T05:29:00,rvs,23.73
2023-08-16T05:30:00,rvs,19.80
2023-08-16T05:31:00,rvs,18.21
2023-08-16T05:32:00,rvs,18.02
2023-08-16T05:33:00,rvs,17.83
2023-08-16T05:34:00,rvs,18.31
2023-08-16T05:35:00,rvs,19.53
2023-08-16T05:36:00,rvs,20.04
2023-08-16T05:37:00,rvs,19.42
2023-08-16T05:38:00,rvs,17.80
2023-08-16T05:39:00,rvs,19.98
2023-08-16T05:40:00,rvs,15.80
2023-08-16T05:41:00,rvs,15.91
2023-08-16T05:42:00,rvs,15.57
2023-08-16T05:43:00,rvs,11.40
2023-08-16T05:44:00,rvs,10.78
2023-08-16T05:45:00,rvs,10.78
2023-08-16T05:46:00,rvs,10.72
2023-08-16T05:47:00,rvs,10.73
2023-08-16T05:48:00,rvs,10.66
2023-08-16T05:49:00,rvs,10.92
2023-08-16T05:50:00,rvs,11.72
2023-08-16T05:51:00,rvs,11.84
2023-08-16T05:52:00,rvs,10.89
2023-08-16T05:53:00,rvs,12.19
2023-08-16T05:54:00,rvs,12.19
2023-08-16T05:55:00,rvs,11.71
2023-08-16T05:56:00,rvs,11.97
2023-08-16T05:57:00,rvs,10.98
2023-08-16T05:58:00,rvs,11.25
2023-08-16T05:59:00,rvs,11.45
2023-08-16T06:00:00,rvs,11.02
2023-08-16T06:01:00,rvs,10.76
2023-08-16T06:02:00,rvs,10.74
2023-08-16T06:03:00,rvs,10.42
2023-08-16T06:04:00,rvs,10.76
2023-08-16T06:05:00,rvs,10.84
2023-08-16T06:06:00,rvs,10.80
2023-08-16T06:07:00,rvs,12.69
2023-08-16T06:08:00,rvs,13.29
2023-08-16T06:09:00,rvs,13.76
2023-08-16T06:10:00,rvs,13.18
2023-08-16T06:11:00,rvs,15.17
2023-08-16T06:12:00,rvs,18.65
2023-08-16T06:13:00,rvs,19.46
2023-08-16T06:14:00,rvs,21.36
2023-08-16T06:15:00,rvs,21.96
2023-08-16T06:16:00,rvs,21.23
2023-08-16T06:17:00,rvs,20.77
2023-08-16T06:18:00,rvs,22.53
2023-08-16T06:19:00,rvs,22.93
2023-08-16T06:20:00,rvs,23.06
2023-08-16T06:21:00,rvs,22.48
2023-08-16T06:22:00,rvs,14.37
2023-08-16T06:23:00,rvs,14.54
2023-08-16T06:24:00,rvs,10.96
2023-08-16T06:25:00,rvs,11.26
2023-08-16T06:26:00,rvs,10.85
2023-08-16T06:27:00,rvs,11.02
2023-08-16T06:28:00,rvs,10.79
2023-08-16T06:29:00,rvs,10.95
2023-08-16T06:30:00,rvs,12.00
2023-08-16T06:31:00,rvs,12.26
2023-08-16T06:32:00,rvs,12.41
2023-08-16T06:33:00,rvs,12.30
2023-08-16T06:34:00,rvs,11.26
2023-08-16T06:35:00,rvs,11.22
2023-08-16T06:36:00,rvs,11.41
2023-08-16T06:37:00,rvs,11.71
2023-08-16T06:38:00,rvs,11.59
2023-08-16T06:39:00,rvs,14.82
2023-08-16T06:40:00,rvs,14.47
2023-08-16T06:41:00,rvs,15.68
2023-08-16T06:42:00,rvs,16.67
2023-08-16T06:43:00,rvs,16.71
2023-08-16T06:44:00,rvs,16.15
2023-08-16T06:45:00,rvs,15.94
2023-08-16T06:46:00,rvs,14.76
2023-08-16T06:47:00,rvs,15.34
2023-08-16T06:48:00,rvs,15.28
2023-08-16T06:49:00,rvs,15.40
2023-08-16T06:50:00,rvs,15.68
2023-08-16T06:51:00,rvs,16.59
2023-08-16T06:52:00,rvs,16.99
2023-08-16T06:53:00,rvs,16.89
2023-08-16T06:54:00,rvs,16.70
2023-08-16T06:55:00,rvs,16.63
2023-08-16T06:56:00,rvs,14.75
2023-08-16T06:57:00,rvs,14.92
2023-08-16T06:58:00,rvs,15.31
2023-08-16T06:59:00,rvs,15.54
2023-08-16T07:00:00,rvs,14.95
2023-08-16T07:01:00,rvs,15.21
2023-08-16T07:02:00,rvs,28.57
2023-08-16T07:03:00,rvs,10.89
2023-08-16T07:04:00,rvs,11.72
2023-08-16T07:05:00,rvs,12.36
2023-08-16T07:06:00,rvs,12.32
2023-08-16T07:07:00,rvs,12.25
2023-08-16T07:08:00,rvs,12.23
2023-08-16T07:09:00,rvs,10.98
2023-08-16T07:10:00,rvs,10.19
2023-08-16T07:11:00,rvs,10.58
2023-08-16T07:12:00,rvs,10.58
2023-08-16T07:13:00,rvs,10.35
2023-08-16T07:14:00,rvs,10.43
2023-08-16T07:15:00,rvs,10.47
2023-08-16T07:16:00,rvs,13.12
2023-08-16T07:17:00,rvs,13.75
2023-08-16T07:18:00,rvs,14.62
2023-08-16T07:19:00,rvs,15.38
2023-08-16T07:20:00,rvs,16.41
2023-08-16T07:21:00,rvs,15.09
2023-08-16T07:22:00,rvs,17.18
2023-08-16T07:23:00,rvs,17.05
2023-08-16T07:24:00,rvs,18.10
2023-08-16T07:25:00,rvs,18.28
2023-08-16T07:26:00,rvs,19.27
2023-08-16T07:27:00,rvs,19.71
2023-08-16T07:28:00,rvs,20.16
2023-08-16T07:29:00,rvs,20.06
2023-08-16T07:30:00,rvs,19.55
2023-08-16T07:31:00,rvs,21.77
2023-08-16T07:32:00,rvs,17.50
2023-08-16T07:33:00,rvs,14.61
2023-08-16T07:34:00,rvs,14.20
2023-08-16T07:35:00,rvs,15.58
2023-08-16T07:36:00,rvs,15.39
2023-08-16T07:37:00,rvs,16.29
2023-08-16T07:38:00,rvs,20.39
2023-08-16T07:39:00,rvs,24.87
2023-08-16T07:40:00,rvs,25.82
2023-08-16T07:41:00,rvs,28.15
2023-08-16T07:42:00,rvs,27.34
2023-08-16T07:43:00,rvs,26.06
2023-08-16T07:44:00,rvs,26.31
2023-08-16T07:45:00,rvs,31.78
2023-08-16T07:46:00,rvs,32.16
2023-08-16T07:47:00,rvs,32.84
2023-08-16T07:48:00,rvs,33.20
2023-08-16T07:49:00,rvs,36.72
2023-08-16T07:50:00,rvs,38.63
2023-08-16T07:51:00,rvs,35.14
2023-08-16T07:52:00,rvs,27.02
2023-08-16T07:53:00,rvs,24.00
2023-08-16T07:54:00,rvs,28.73
2023-08-16T07:55:00,rvs,23.97
2023-08-16T07:56:00,rvs,19.99
2023-08-16T07:57:00,rvs,23.62
2023-08-16T07:58:00,rvs,19.50
2023-08-16T07:59:00,rvs,19.46
2023-08-16T08:00:00,rvs,23.44
2023-08-16T08:01:00,rvs,15.63
2023-08-16T08:02:00,rvs,22.00
2023-08-16T08:03:00,rvs,18.80
2023-08-16T08:04:00,rvs,18.94
2023-08-16T08:05:00,rvs,20.87
2023-08-16T08:06:00,rvs,16.92
2023-08-16T08:07:00,rvs,24.55
2023-08-16T08:08:00,rvs,21.68
2023-08-16T08:09:00,rvs,20.15
2023-08-16T08:10:00,rvs,26.63
2023-08-16T08:11:00,rvs,27.28
2023-08-16T08:12:00,rvs,27.54
2023-08-16T08:13:00,rvs,27.81
2023-08-16T08:14:00,rvs,26.91
2023-08-16T08:15:00,rvs,22.38
2023-08-16T08:16:00,rvs,24.01
2023-08-16T08:17:00,rvs,18.50
2023-08-16T08:18:00,rvs,19.18
2023-08-16T08:19:00,rvs,26.73
2023-08-16T08:20:00,rvs,22.27
2023-08-16T08:21:00,rvs,17.85
2023-08-16T08:22:00,rvs,23.18
2023-08-16T08:23:00,rvs,24.94
2023-08-16T08:24:00,rvs,24.59
2023-08-16T08:25:00,rvs,20.19
2023-08-16T08:26:00,rvs,18.95
2023-08-16T08:27:00,rvs,20.48
2023-08-16T08:28:00,rvs,23.09
2023-08-16T08:29:00,rvs,17.18
2023-08-16T08:30:00,rvs,16.04
2023-08-16T08:31:00,rvs,18.61
2023-08-16T08:32:00,rvs,15.42
2023-08-16T08:33:00,rvs,17.34
2023-08-16T08:34:00,rvs,17.25
2023-08-16T08:35:00,rvs,19.89
2023-08-16T08:36:00,rvs,14.86
2023-08-16T08:37:00,rvs,16.31
2023-08-16T08:38:00,rvs,16.29
2023-08-16T08:39:00,rvs,16.78
2023-08-16T08:40:00,rvs,33.83
2023-08-16T08:41:00,rvs,18.69
2023-08-16T08:42:00,rvs,19.15
2023-08-16T08:43:00,rvs,19.20
2023-08-16T08:44:00,rvs,19.38
2023-08-16T08:45:00,rvs,19.79
2023-08-16T08:46:00,rvs,20.27
2023-08-16T08:47:00,rvs,19.68
2023-08-16T08:48:00,rvs,19.72
2023-08-16T08:49:00,rvs,20.57
2023-08-16T08:50:00,rvs,22.41
2023-08-16T08:51:00,rvs,17.22
2023-08-16T08:52:00,rvs,14.90
2023-08-16T08:53:00,rvs,15.80
2023-08-16T08:54:00,rvs,16.82
2023-08-16T08:55:00,rvs,16.70
2023-08-16T08:56:00,rvs,16.43
2023-08-16T08:57:00,rvs,16.78
2023-08-16T08:58:00,rvs,16.48
2023-08-16T08:59:00,rvs,15.15
2023-08-16T09:00:00,rvs,16.35
2023-08-16T09:01:00,rvs,15.86
2023-08-16T09:02:00,rvs,16.08
2023-08-16T09:03:00,rvs,16.21
2023-08-16T09:04:00,rvs,15.02
2023-08-16T09:05:00,rvs,15.01
2023-08-16T09:06:00,rvs,10.03
2023-08-16T09:07:00,rvs,9.94
2023-08-16T09:08:00,rvs,9.97
2023-08-16T09:09:00,rvs,9.93
2023-08-16T09:10:00,rvs,10.25
2023-08-16T09:11:00,rvs,10.53
2023-08-16T09:12:00,rvs,11.40
2023-08-16T09:13:00,rvs,10.86
2023-08-16T09:14:00,rvs,13.35
2023-08-16T09:15:00,rvs,13.49
2023-08-16T09:16:00,rvs,13.75
2023-08-16T09:17:00,rvs,14.20
2023-08-16T09:18:00,rvs,14.14
2023-08-16T09:19:00,rvs,14.76
2023-08-16T09:20:00,rvs,16.08
2023-08-16T09:21:00,rvs,16.63
2023-08-16T09:22:00,rvs,16.83
2023-08-16T09:23:00,rvs,16.54
2023-08-16T09:24:00,rvs,16.96
2023-08-16T09:25:00,rvs,15.35
2023-08-16T09:26:00,rvs,15.23
2023-08-16T09:27:00,rvs,15.76
2023-08-16T09:28:00,rvs,14.22
2023-08-16T09:29:00,rvs,14.49
2023-08-16T09:30:00,rvs,10.46
2023-08-16T09:31:00,rvs,10.41
2023-08-16T09:32:00,rvs,10.49
2023-08-16T09:33:00,rvs,10.48
2023-08-16T09:34:00,rvs,10.79
2023-08-16T09:35:00,rvs,10.98
2023-08-16T09:36:00,rvs,11.77
2023-08-16T09:37:00,rvs,11.87
2023-08-16T09:38:00,rvs,11.79
2023-08-16T09:39:00,rvs,13.70
2023-08-16T09:40:00,rvs,13.34
2023-08-16T09:41:00,rvs,16.09
2023-08-16T09:42:00,rvs,16.96
2023-08-16T09:43:00,rvs,17.39
2023-08-16T09:44:00,rvs,19.14
2023-08-16T09:45:00,rvs,20.14
2023-08-16T09:46:00,rvs,18.09
2023-08-16T09:47:00,rvs,19.67
2023-08-16T09:48:00,rvs,20.24
2023-08-16T09:49:00,rvs,19.54
2023-08-16T09:50:00,rvs,20.90
2023-08-16T09:51:00,rvs,20.47
2023-08-16T09:52:00,rvs,19.90
2023-08-16T09:53:00,rvs,21.82
2023-08-16T09:54:00,rvs,18.35
2023-08-16T09:55:00,rvs,18.12
2023-08-16T09:56:00,rvs,18.33
2023-08-16T09:57:00,rvs,18.76
2023-08-16T09:58:00,rvs,19.91
2023-08-16T09:59:00,rvs,17.80
2023-08-16T10:00:00,rvs,18.47
2023-08-16T10:01:00,rvs,18.58
2023-08-16T10:02:00,rvs,18.46
2023-08-16T10:03:00,rvs,18.41
2023-08-16T10:04:00,rvs,18.33
2023-08-16T10:05:00,rvs,14.26
2023-08-16T10:06:00,rvs,14.22
2023-08-16T10:07:00,rvs,16.69
2023-08-16T10:08:00,rvs,17.27
2023-08-16T10:09:00,rvs,17.71
2023-08-16T10:10:00,rvs,18.85
2023-08-16T10:11:00,rvs,20.98
2023-08-16T10:12:00,rvs,22.14
2023-08-16T10:13:00,rvs,22.30
2023-08-16T10:14:00,rvs,18.05
2023-08-16T10:15:00,rvs,19.24
2023-08-16T10:16:00,rvs,18.41
2023-08-16T10:17:00,rvs,18.73
2023-08-16T10:18:00,rvs,18.30
2023-08-16T10:19:00,rvs,18.45
2023-08-16T10:20:00,rvs,18.38
2023-08-16T10:21:00,rvs,19.12
2023-08-16T10:22:00,rvs,19.22
2023-08-16T10:23:00,rvs,18.81
2023-08-16T10:24:00,rvs,19.66
2023-08-16T10:25:00,rvs,19.85
2023-08-16T10:26:00,rvs,19.83
2023-08-16T10:27:00,rvs,15.76
2023-08-16T10:28:00,rvs,15.31
2023-08-16T10:29:00,rvs,15.93
2023-08-16T10:30:00,rvs,16.07
2023-08-16T10:31:00,rvs,11.51
2023-08-16T10:32:00,rvs,11.62
2023-08-16T10:33:00,rvs,11.65
2023-08-16T10:34:00,rvs,11.83
2023-08-16T10:35:00,rvs,11.80
2023-08-16T10:36:00,rvs,11.47
2023-08-16T10:37:00,rvs,13.98
2023-08-16T10:38:00,rvs,15.73
2023-08-16T10:39:00,rvs,16.26
2023-08-16T10:40:00,rvs,16.05
2023-08-16T10:41:00,rvs,16.17
2023-08-16T10:42:00,rvs,17.98
2023-08-16T10:43:00,rvs,31.45
2023-08-16T10:44:00,rvs,31.01
2023-08-16T10:45:00,rvs,31.50
2023-08-16T10:46:00,rvs,34.37
2023-08-16T10:47:00,rvs,34.45
2023-08-16T10:48:00,rvs,21.97
2023-08-16T10:49:00,rvs,23.58
2023-08-16T10:50:00,rvs,24.10
2023-08-16T10:51:00,rvs,24.25
2023-08-16T10:52:00,rvs,24.21
2023-08-16T10:53:00,rvs,23.12
2023-08-16T10:54:00,rvs,23.34
2023-08-16T10:55:00,rvs,19.01
2023-08-16T10:56:00,rvs,20.24
2023-08-16T10:57:00,rvs,19.65
2023-08-16T10:58:00,rvs,15.54
2023-08-16T10:59:00,rvs,16.45
2023-08-16T11:00:00,rvs,16.62
2023-08-16T11:01:00,rvs,17.56
2023-08-16T11:02:00,rvs,17.71
2023-08-16T11:03:00,rvs,16.10
2023-08-16T11:04:00,rvs,15.39
2023-08-16T11:05:00,rvs,15.15
2023-08-16T11:06:00,rvs,15.13
2023-08-16T11:07:00,rvs,10.67
2023-08-16T11:08:00,rvs,15.88
2023-08-16T11:09:00,rvs,20.19
2023-08-16T11:10:00,rvs,20.55
2023-08-16T11:11:00,rvs,20.26
2023-08-16T11:12:00,rvs,16.28
2023-08-16T11:13:00,rvs,20.21
2023-08-16T11:14:00,rvs,20.30
2023-08-16T11:15:00,rvs,16.55
2023-08-16T11:16:00,rvs,22.91
2023-08-16T11:17:00,rvs,21.49
2023-08-16T11:18:00,rvs,30.11
2023-08-16T11:19:00,rvs,26.98
2023-08-16T11:20:00,rvs,33.62
2023-08-16T11:21:00,rvs,29.26
2023-08-16T11:22:00,rvs,32.89
2023-08-16T11:23:00,rvs,28.43
2023-08-16T11:24:00,rvs,28.80
2023-08-16T11:25:00,rvs,29.54
2023-08-16T11:26:00,rvs,28.57
2023-08-16T11:27:00,rvs,29.03
2023-08-16T11:28:00,rvs,32.08
2023-08-16T11:29:00,rvs,35.59
2023-08-16T11:30:00,rvs,27.77
2023-08-16T11:31:00,rvs,33.61
2023-08-16T11:32:00,rvs,29.56
2023-08-16T11:33:00,rvs,28.18
2023-08-16T11:34:00,rvs,24.91
2023-08-16T11:35:00,rvs,24.46
2023-08-16T11:36:00,rvs,28.46
2023-08-16T11:37:00,rvs,27.06
2023-08-16T11:38:00,rvs,31.17
2023-08-16T11:39:00,rvs,27.49
2023-08-16T11:40:00,rvs,23.29
2023-08-16T11:41:00,rvs,17.05
2023-08-16T11:42:00,rvs,21.63
2023-08-16T11:43:00,rvs,16.48
2023-08-16T11:44:00,rvs,16.32
2023-08-16T11:45:00,rvs,16.57
2023-08-16T11:46:00,rvs,16.30
2023-08-16T11:47:00,rvs,13.61
2023-08-16T11:48:00,rvs,13.03
2023-08-16T11:49:00,rvs,18.86
2023-08-16T11:50:00,rvs,18.54
2023-08-16T11:51:00,rvs,14.75
2023-08-16T11:52:00,rvs,15.89
2023-08-16T11:53:00,rvs,20.85
2023-08-16T11:54:00,rvs,19.32
2023-08-16T11:55:00,rvs,20.34
2023-08-16T11:56:00,rvs,15.97
2023-08-16T11:57:00,rvs,16.70
2023-08-16T11:58:00,rvs,20.61
2023-08-16T11:59:00,rvs,19.26
2023-08-16T12:00:00,rvs,19.48
2023-08-16T12:01:00,rvs,20.23
2023-08-16T12:02:00,rvs,21.30
2023-08-16T12:03:00,rvs,16.90
2023-08-16T12:04:00,rvs,16.98
2023-08-16T12:05:00,rvs,16.60
2023-08-16T12:06:00,rvs,15.85
2023-08-16T12:07:00,rvs,12.14
2023-08-16T12:08:00,rvs,12.22
2023-08-16T12:09:00,rvs,12.30
2023-08-16T12:10:00,rvs,17.71
2023-08-16T12:11:00,rvs,12.70
2023-08-16T12:12:00,rvs,12.71
2023-08-16T12:13:00,rvs,15.04
2023-08-16T12:14:00,rvs,20.66
2023-08-16T12:15:00,rvs,18.72
2023-08-16T12:16:00,rvs,21.28
2023-08-16T12:17:00,rvs,22.26
2023-08-16T12:18:00,rvs,23.31
2023-08-16T12:19:00,rvs,23.51
2023-08-16T12:20:00,rvs,24.95
2023-08-16T12:21:00,rvs,25.06
2023-08-16T12:22:00,rvs,25.64
2023-08-16T12:23:00,rvs,25.78
2023-08-16T12:24:00,rvs,25.61
2023-08-16T12:25:00,rvs,25.28
2023-08-16T12:26:00,rvs,24.11
2023-08-16T12:27:00,rvs,26.85
2023-08-16T12:28:00,rvs,26.45
2023-08-16T12:29:00,rvs,22.85
2023-08-16T12:30:00,rvs,41.19
2023-08-16T12:31:00,rvs,21.19
2023-08-16T12:32:00,rvs,21.56
2023-08-16T12:33:00,rvs,20.30
2023-08-16T12:34:00,rvs,16.30
2023-08-16T12:35:00,rvs,17.91
2023-08-16T12:36:00,rvs,19.57
2023-08-16T12:37:00,rvs,19.75
2023-08-16T12:38:00,rvs,15.94
2023-08-16T12:39:00,rvs,15.92
2023-08-16T12:40:00,rvs,15.62
2023-08-16T12:41:00,rvs,20.20
2023-08-16T12:42:00,rvs,22.47
2023-08-16T12:43:00,rvs,22.45
2023-08-16T12:44:00,rvs,24.32
2023-08-16T12:45:00,rvs,25.28
2023-08-16T12:46:00,rvs,24.25
2023-08-16T12:47:00,rvs,25.44
2023-08-16T12:48:00,rvs,25.74
2023-08-16T12:49:00,rvs,25.42
2023-08-16T12:50:00,rvs,26.36
2023-08-16T12:51:00,rvs,25.37
2023-08-16T12:52:00,rvs,24.18
2023-08-16T12:53:00,rvs,28.02
2023-08-16T12:54:00,rvs,29.32
2023-08-16T12:55:00,rvs,26.98
2023-08-16T12:56:00,rvs,23.23
2023-08-16T12:57:00,rvs,22.36
2023-08-16T12:58:00,rvs,22.23
2023-08-16T12:59:00,rvs,38.79
2023-08-16T13:00:00,rvs,24.06
2023-08-16T13:01:00,rvs,23.68
2023-08-16T13:02:00,rvs,20.65
2023-08-16T13:03:00,rvs,20.23
2023-08-16T13:04:00,rvs,21.07
2023-08-16T13:05:00,rvs,21.57
2023-08-16T13:06:00,rvs,21.62
2023-08-16T13:07:00,rvs,20.52
2023-08-16T13:08:00,rvs,15.35
2023-08-16T13:09:00,rvs,15.11
2023-08-16T13:10:00,rvs,15.11
2023-08-16T13:11:00,rvs,18.39
2023-08-16T13:12:00,rvs,18.56
2023-08-16T13:13:00,rvs,18.29
2023-08-16T13:14:00,rvs,18.28
2023-08-16T13:15:00,rvs,15.56
2023-08-16T13:16:00,rvs,15.78
2023-08-16T13:17:00,rvs,16.65
2023-08-16T13:18:00,rvs,14.59
2023-08-16T13:19:00,rvs,15.58